TimeEDT,TemperatureF,Dew PointF,Humidity,Sea Level PressureIn,VisibilityMPH,Wind Direction,Wind SpeedMPH,Gust SpeedMPH,PrecipitationIn,Events,Conditions,WindDirDegrees,DateUTC
12:15 AM,66.2,64.4,94,29.77,1.8,Calm,Calm,-,N/A,,Clear,0,2013-06-27 04:15:00
12:18 AM,64.4,62.6,94,29.77,0.8,Calm,Calm,-,N/A,,Clear,0,2013-06-27 04:18:00
12:31 AM,66.2,64.4,94,29.77,0.2,Calm,Calm,-,N/A,Fog,Fog,0,2013-06-27 04:31:00
12:53 AM,64.9,64.0,97,29.77,0.2,Calm,Calm,-,N/A,Fog,Fog,0,2013-06-27 04:53:00
1:02 AM,64.4,62.6,94,29.77,1.8,Calm,Calm,-,N/A,,Partly Cloudy,0,2013-06-27 05:02:00
1:10 AM,64.4,62.6,94,29.77,1.0,Calm,Calm,-,N/A,,Mist,0,2013-06-27 05:10:00
1:17 AM,64.4,62.6,94,29.76,0.5,Calm,Calm,-,N/A,Fog,Fog,0,2013-06-27 05:17:00
1:22 AM,62.6,62.6,100,29.76,1.8,Calm,Calm,-,N/A,,Partly Cloudy,0,2013-06-27 05:22:00
1:28 AM,62.6,60.8,94,29.76,0.8,Calm,Calm,-,N/A,,Mist,0,2013-06-27 05:28:00
1:41 AM,62.6,60.8,94,29.76,1.0,Calm,Calm,-,N/A,,Clear,0,2013-06-27 05:41:00
1:48 AM,64.4,62.6,94,29.76,0.8,Calm,Calm,-,N/A,,Clear,0,2013-06-27 05:48:00
1:53 AM,63.0,62.1,97,29.76,1.0,Calm,Calm,-,N/A,,Clear,0,2013-06-27 05:53:00
2:01 AM,62.6,62.6,100,29.76,1.5,Calm,Calm,-,N/A,,Clear,0,2013-06-27 06:01:00
2:08 AM,62.6,60.8,94,29.76,1.8,Calm,Calm,-,N/A,,Partly Cloudy,0,2013-06-27 06:08:00
2:12 AM,62.6,62.6,100,29.76,4.0,Calm,Calm,-,N/A,,Clear,0,2013-06-27 06:12:00
2:15 AM,62.6,62.6,100,29.76,1.8,Calm,Calm,-,N/A,,Clear,0,2013-06-27 06:15:00
2:24 AM,64.4,62.6,94,29.76,3.0,Calm,Calm,-,N/A,,Clear,0,2013-06-27 06:24:00
2:27 AM,62.6,62.6,100,29.76,0.8,Calm,Calm,-,N/A,,Mist,0,2013-06-27 06:27:00
2:38 AM,62.6,62.6,100,29.76,1.2,Calm,Calm,-,N/A,,Partly Cloudy,0,2013-06-27 06:38:00
2:48 AM,62.6,62.6,100,29.76,2.0,Calm,Calm,-,N/A,,Partly Cloudy,0,2013-06-27 06:48:00
2:53 AM,62.1,61.0,96,29.76,4.0,Calm,Calm,-,N/A,,Partly Cloudy,0,2013-06-27 06:53:00
3:10 AM,62.6,60.8,94,29.76,1.0,Calm,Calm,-,N/A,,Mist,0,2013-06-27 07:10:00
3:17 AM,62.6,62.6,100,29.76,0.5,Calm,Calm,-,N/A,Fog,Fog,0,2013-06-27 07:17:00
3:23 AM,62.6,60.8,94,29.76,1.2,Calm,Calm,-,N/A,,Partly Cloudy,0,2013-06-27 07:23:00
3:26 AM,62.6,62.6,100,29.76,2.5,Calm,Calm,-,N/A,,Partly Cloudy,0,2013-06-27 07:26:00
3:33 AM,60.8,60.8,100,29.76,5.0,SSW,3.5,-,N/A,,Partly Cloudy,200,2013-06-27 07:33:00
3:47 AM,62.6,60.8,94,29.76,1.8,SSW,3.5,-,N/A,,Clear,200,2013-06-27 07:47:00
3:53 AM,62.1,61.0,96,29.76,2.0,SSW,3.5,-,N/A,,Clear,200,2013-06-27 07:53:00
4:02 AM,62.6,60.8,94,29.76,5.0,Calm,Calm,-,N/A,,Clear,0,2013-06-27 08:02:00
4:53 AM,62.1,61.0,96,29.77,1.5,SSW,3.5,-,N/A,,Clear,210,2013-06-27 08:53:00
4:59 AM,62.6,62.6,100,29.77,0.8,Calm,Calm,-,N/A,,Clear,0,2013-06-27 08:59:00
5:12 AM,62.6,62.6,100,29.77,0.2,Calm,Calm,-,N/A,Fog,Fog,0,2013-06-27 09:12:00
5:27 AM,62.6,60.8,94,29.78,1.2,Calm,Calm,-,N/A,,Scattered Clouds,0,2013-06-27 09:27:00
5:29 AM,60.8,60.8,100,29.78,3.0,Calm,Calm,-,N/A,,Scattered Clouds,0,2013-06-27 09:29:00
5:34 AM,62.6,60.8,94,29.77,1.5,Calm,Calm,-,N/A,,Mostly Cloudy,0,2013-06-27 09:34:00
5:41 AM,62.6,62.6,100,29.77,1.0,Calm,Calm,-,N/A,,Scattered Clouds,0,2013-06-27 09:41:00
5:45 AM,64.4,62.6,94,29.77,2.0,Calm,Calm,-,N/A,,Partly Cloudy,0,2013-06-27 09:45:00
5:53 AM,64.0,63.0,96,29.77,4.0,Calm,Calm,-,N/A,,Partly Cloudy,0,2013-06-27 09:53:00
6:53 AM,68.0,64.9,90,29.77,5.0,Calm,Calm,-,N/A,,Partly Cloudy,0,2013-06-27 10:53:00
7:53 AM,71.1,66.0,84,29.78,10.0,WSW,6.9,-,N/A,,Scattered Clouds,240,2013-06-27 11:53:00
8:53 AM,73.0,66.9,81,29.78,9.0,NW,8.1,-,N/A,,Partly Cloudy,310,2013-06-27 12:53:00
9:32 AM,73.4,66.2,78,29.78,7.0,Variable,3.5,-,N/A,,Mostly Cloudy,0,2013-06-27 13:32:00
9:53 AM,73.9,68.0,82,29.78,6.0,North,3.5,-,N/A,,Haze,360,2013-06-27 13:53:00
10:17 AM,75.2,68.0,78,29.78,8.0,Calm,Calm,-,N/A,,Scattered Clouds,0,2013-06-27 14:17:00
10:33 AM,75.2,68.0,78,29.78,7.0,North,5.8,-,N/A,,Mostly Cloudy,350,2013-06-27 14:33:00
10:40 AM,75.2,69.8,83,29.78,8.0,NNW,4.6,-,N/A,,Scattered Clouds,340,2013-06-27 14:40:00
10:53 AM,75.0,68.0,79,29.77,8.0,NNW,3.5,-,N/A,,Partly Cloudy,340,2013-06-27 14:53:00
11:53 AM,78.1,66.9,68,29.77,10.0,Calm,Calm,-,N/A,,Mostly Cloudy,0,2013-06-27 15:53:00
12:37 PM,80.6,68.0,65,29.77,10.0,Calm,Calm,-,N/A,,Mostly Cloudy,0,2013-06-27 16:37:00
12:44 PM,80.6,68.0,65,29.77,10.0,North,5.8,-,N/A,,Partly Cloudy,10,2013-06-27 16:44:00
12:53 PM,80.1,66.0,62,29.76,10.0,Variable,4.6,-,N/A,,Scattered Clouds,0,2013-06-27 16:53:00
1:53 PM,80.1,66.9,64,29.75,10.0,NE,4.6,-,N/A,,Clear,50,2013-06-27 17:53:00
2:53 PM,80.1,68.0,67,29.75,10.0,ENE,3.5,-,N/A,,Clear,70,2013-06-27 18:53:00
3:53 PM,78.1,68.0,71,29.74,10.0,East,6.9,-,N/A,,Mostly Cloudy,80,2013-06-27 19:53:00
4:04 PM,78.8,68.0,69,29.74,10.0,East,8.1,-,N/A,,Scattered Clouds,80,2013-06-27 20:04:00
4:53 PM,78.1,68.0,71,29.73,10.0,NE,11.5,-,N/A,,Clear,50,2013-06-27 20:53:00
5:53 PM,75.9,66.0,71,29.73,10.0,ENE,9.2,-,N/A,,Clear,70,2013-06-27 21:53:00
6:53 PM,75.9,66.0,71,29.73,10.0,ENE,8.1,-,N/A,,Clear,60,2013-06-27 22:53:00
7:53 PM,73.9,64.0,71,29.73,10.0,ENE,9.2,-,N/A,,Clear,60,2013-06-27 23:53:00
8:53 PM,72.0,64.0,76,29.72,10.0,NE,8.1,-,N/A,,Clear,50,2013-06-28 00:53:00
9:53 PM,71.1,64.0,78,29.73,10.0,NE,11.5,-,N/A,,Clear,50,2013-06-28 01:53:00
10:53 PM,68.0,62.1,81,29.73,10.0,NE,17.3,24.2,N/A,,Partly Cloudy,50,2013-06-28 02:53:00
11:53 PM,66.0,60.1,81,29.73,10.0,NE,17.3,23.0,N/A,,Mostly Cloudy,50,2013-06-28 03:53:00